Wind_Speed
7 5 3 1 2 3 4 5 6 6 5 5 4 3 5 6 9 10 7 4 2 4 5 3 8 4 1 4 6 3 4 3 3 4 6 10 4 8 4 12 4 6 7 15 28
7 5 3 1 2 3 5 5 6 6 6 5 4 3 6 7 10 10 6 7 2 5 3 3 12 10 2 3 3 4 2 2 1 7 4 2 4 13 5 11 1 6 7 30 30
7 5 3 1 2 4 5 6 6 6 6 5 3 4 6 8 7 1 3 12 7 6 7 3 11 7 4 4 3 3 4 5 6 11 5 1 2 8 12 4 10 16 24 35 31
6 6 4 1 3 4 5 6 6 6 6 5 4 4 6 7 1 3 4 11 10 8 4 4 11 3 2 3 3 1 6 5 9 8 4 1 6 3 12 3 6 15 21 33 30
6 6 4 2 3 5 6 6 7 7 6 5 4 4 6 6 3 2 5 10 9 7 6 2 11 3 1 3 3 1 4 7 9 4 6 7 2 4 7 4 11 21 26 30 28
6 6 5 2 3 5 6 7 7 7 6 5 4 4 6 3 1 5 7 8 8 9 2 8 2 3 5 3 2 2 8 6 6 7 7 3 4 2 0 9 20 22 28 27 27
7 6 5 2 4 5 7 7 7 7 6 5 4 6 9 6 0 7 8 6 6 3 4 10 4 5 4 2 4 4 3 2 2 2 5 1 3 2 8 16 22 23 24 27 26
7 6 5 3 5 6 7 8 7 7 5 4 5 6 4 2 3 7 10 10 6 3 8 10 6 4 2 6 2 3 3 2 3 1 6 2 5 3 13 19 21 24 25 25 28
7 6 5 4 5 7 8 7 7 5 4 5 5 5 4 4 7 8 11 10 10 8 9 9 2 1 2 2 3 4 2 1 3 7 2 2 5 3 15 19 21 25 27 30 30
7 6 4 5 7 8 7 6 5 5 6 6 9 5 5 2 7 11 12 10 6 7 1 3 3 2 2 2 1 3 1 2 4 3 5 5 12 2 10 19 22 26 28 30 31
7 6 4 6 8 9 10 7 2 3 10 7 0 3 3 3 7 12 17 13 2 4 1 2 3 6 7 6 0 2 1 2 4 4 5 7 7 6 12 11 14 25 29 32 33
6 5 5 7 9 10 12 4 6 4 7 11 19 20 19 17 3 9 17 15 8 4 2 4 5 9 3 6 4 2 2 4 4 2 3 5 8 7 9 9 22 24 26 22 27
6 5 6 9 10 13 15 5 8 9 2 5 9 10 7 5 6 14 21 14 4 3 4 4 5 3 3 2 3 3 4 3 4 3 1 2 7 2 5 9 12 19 19 18 17
6 6 9 10 10 11 10 7 7 6 4 5 3 3 8 5 3 11 21 12 4 8 6 5 6 4 4 4 5 3 6 6 2 4 2 2 4 5 4 5 6 15 20 24 24
7 9 12 13 6 11 10 4 4 7 2 2 4 2 5 6 1 7 21 14 6 6 5 6 3 4 4 5 5 7 2 3 4 4 2 2 3 6 3 5 8 11 19 21 23
8 10 13 15 11 11 4 4 7 5 2 1 4 4 5 3 1 5 5 6 3 2 3 6 2 5 5 3 6 4 5 8 5 3 3 4 4 5 4 8 4 7 13 16 18
9 12 15 14 12 7 4 11 4 3 4 2 3 3 3 1 1 1 4 3 3 3 5 6 2 3 4 3 2 4 6 3 3 3 5 4 3 8 5 7 6 9 11 10 9
10 12 14 15 13 4 10 3 2 2 5 2 3 3 5 1 1 3 2 2 1 4 2 1 6 2 2 5 5 2 6 5 2 2 4 1 4 6 6 12 14 14 11 11 12
10 11 13 16 7 4 5 2 5 5 2 1 2 3 1 0 1 0 3 6 8 9 6 2 5 5 3 2 4 3 1 4 6 4 2 3 7 10 4 3 5 12 15 17 15
10 11 12 11 6 6 4 4 4 4 2 1 6 3 5 3 2 3 2 3 3 7 5 5 3 2 6 1 5 2 4 3 4 1 3 5 5 6 5 7 5 7 19 21 17
11 8 13 11 7 3 3 6 6 11 6 5 5 4 3 6 6 4 3 5 3 4 3 5 3 6 3 4 1 5 3 6 5 4 5 1 6 7 7 7 9 13 22 22 20
6 3 15 13 3 2 3 5 3 5 7 5 3 3 8 7 6 4 7 6 10 14 8 5 5 1 7 2 1 2 1 4 5 4 1 3 6 2 7 11 17 21 21 23 20
4 5 15 11 3 2 4 4 4 6 4 2 5 4 3 7 3 5 4 6 12 5 7 7 2 3 9 7 4 4 2 5 5 3 4 4 6 3 8 9 12 17 18 23 22
2 3 5 4 2 4 1 3 5 14 5 4 3 5 3 2 1 1 3 4 2 1 5 7 4 6 6 7 3 4 3 3 4 3 3 6 7 12 10 10 13 19 21 21 21
1 1 4 3 2 2 2 2 5 5 3 6 5 1 4 3 1 2 1 2 4 7 4 4 3 5 5 6 4 5 7 5 7 6 5 8 7 12 10 10 19 17 17 18 18
2 3 4 4 2 4 2 3 2 4 4 3 1 6 3 7 8 7 4 2 3 2 3 2 2 3 4 4 5 6 8 6 7 5 7 6 8 10 19 12 10 16 18 20 21
4 4 2 2 1 4 4 3 2 3 4 8 5 2 5 4 2 2 2 4 2 5 3 3 6 4 7 3 5 8 8 7 6 6 6 6 10 3 5 8 17 22 24 23 19
Wind_Direction
344 349 336 95 153 184 189 185 184 194 204 222 235 259 275 284 298 296 289 209 169 160 143 153 169 196 181 74 69 47 58 14 309 339 301 166 114 151 132 142 149 176 161 169 165
341 344 329 116 172 189 189 184 186 195 211 225 239 267 283 309 302 294 222 191 157 158 150 217 167 162 121 72 79 87 89 266 120 306 300 148 145 157 122 161 34 151 145 162 168
337 336 319 159 183 191 187 186 185 195 213 223 241 271 305 320 324 2 194 197 211 180 138 155 164 188 111 131 158 182 151 280 292 297 285 345 140 176 139 209 204 166 158 166 170
330 327 314 230 187 191 189 185 184 199 212 221 242 279 311 311 252 352 162 186 190 165 125 147 179 128 113 137 156 126 254 226 276 300 315 308 179 176 169 234 232 189 169 170 176
320 317 307 242 186 193 190 184 188 202 212 221 246 287 315 310 304 162 169 172 168 153 160 57 171 119 126 109 115 78 286 304 310 295 25 284 188 199 213 292 158 171 172 177 183
309 310 301 239 190 194 189 187 194 205 212 226 258 302 305 305 9 180 184 184 174 158 50 20 111 47 97 89 99 230 273 329 2 63 98 92 50 53 86 163 156 170 179 188 192
299 303 295 233 194 192 191 192 199 207 218 242 289 291 289 267 209 177 199 208 170 156 348 352 6 12 25 59 335 272 339 14 330 257 166 190 207 133 173 170 164 178 189 197 201
289 296 288 226 191 191 194 196 201 213 225 259 276 297 268 186 161 190 198 208 209 302 278 325 305 343 23 324 23 354 13 99 289 340 11 67 260 179 175 174 178 190 195 206 209
282 287 278 216 188 191 194 195 203 222 236 258 280 285 272 199 224 202 204 204 222 256 285 303 257 22 5 69 23 4 216 187 312 218 38 153 284 299 182 191 190 200 208 211 217
276 279 266 205 186 187 186 180 199 228 235 250 259 295 223 170 185 197 194 225 212 222 314 29 29 66 33 87 149 285 245 214 242 243 214 254 264 352 181 196 208 212 217 220 222
272 269 253 196 182 179 173 162 199 262 233 223 196 241 240 66 177 188 191 179 142 203 5 47 37 249 212 210 34 117 203 241 259 217 173 235 267 241 215 207 220 222 227 230 235
268 258 233 188 181 178 173 169 121 14 299 252 248 258 264 273 258 181 206 185 197 214 105 5 261 267 261 199 192 184 267 259 275 256 155 304 273 259 193 228 225 232 232 231 244
261 240 215 184 180 182 184 148 199 339 295 280 243 249 253 213 225 184 187 198 181 175 194 197 261 51 186 232 230 226 210 219 218 62 119 28 304 161 231 224 224 231 233 234 254
243 219 200 176 184 188 183 203 254 284 55 274 244 241 198 191 228 202 194 181 201 222 166 233 269 237 278 271 160 302 207 224 170 117 216 33 276 304 310 268 232 244 242 245 256
223 208 193 168 149 158 163 201 287 155 83 174 198 195 180 177 104 189 187 197 180 186 136 264 202 236 251 232 149 234 34 172 102 92 34 331 60 271 324 267 260 257 256 260 265
210 199 190 181 149 149 188 224 156 41 250 246 172 163 119 12 267 114 156 190 132 152 247 244 277 195 220 235 175 106 58 39 51 72 356 283 154 277 199 214 255 260 256 262 271
195 193 189 169 153 156 180 146 45 132 350 219 180 127 91 305 340 70 179 134 175 11 356 319 228 263 215 309 110 90 69 344 1 10 225 292 122 252 266 248 227 224 247 246 259
180 188 183 158 151 136 154 65 159 227 259 325 97 73 145 157 29 349 86 190 44 92 52 25 342 212 205 207 201 109 149 158 229 222 270 191 222 256 226 279 236 237 224 242 250
176 182 176 165 149 138 149 92 222 201 234 304 82 111 242 120 156 356 202 203 205 172 176 156 275 309 221 278 138 175 220 165 103 12 33 276 294 305 304 297 163 217 218 236 237
163 163 160 158 144 139 84 238 252 222 303 139 203 153 181 209 184 139 230 212 213 193 157 187 325 297 286 40 41 136 149 33 14 154 288 299 294 243 295 254 192 224 226 234 230
152 147 157 144 137 140 160 232 265 264 240 172 215 152 197 174 180 176 232 285 161 143 112 130 132 286 357 21 294 7 18 50 114 121 169 240 271 217 245 257 242 233 231 231 216
149 86 162 161 82 40 170 206 268 270 239 263 195 149 178 167 172 216 221 230 172 154 163 183 139 286 248 286 261 262 117 117 108 275 106 146 271 242 271 266 249 238 229 221 208
123 94 167 173 134 260 273 278 275 344 306 271 225 200 155 171 177 205 214 288 187 144 159 183 17 20 347 356 12 49 1 94 101 81 206 141 264 303 321 302 256 241 224 204 197
144 90 151 194 168 141 28 325 334 313 255 268 267 123 140 119 262 218 263 19 124 141 132 119 124 156 188 209 176 288 255 149 127 119 210 230 279 301 293 271 267 240 214 193 195
77 155 141 198 276 186 76 296 312 315 290 316 352 124 162 102 69 281 328 0 71 160 83 103 179 175 242 223 197 238 249 208 196 210 185 257 212 265 263 251 252 239 199 196 208
112 132 109 100 123 123 157 238 251 291 223 313 105 299 155 155 178 197 170 174 200 34 79 23 202 172 282 279 198 270 275 252 235 230 245 247 270 238 279 264 212 207 203 214 223
110 84 89 0 91 110 199 254 271 334 262 266 277 131 78 348 211 119 162 146 203 152 149 125 140 131 248 360 3 304 244 222 233 211 181 216 242 271 270 225 216 211 214 222 234
Height
1511 1510 1508 1507 1507 1508 1509 1509 1510 1511 1512 1512 1513 1513 1513 1512 1512 1511 1510 1511 1510 1509 1509 1509 1510 1510 1511 1511 1512 1514 1521 1529 1520 1517 1512 1506 1508 1513 1513 1515 1517 1518 1518 1521 1525
1511 1510 1508 1507 1507 1508 1509 1510 1511 1511 1512 1512 1513 1513 1512 1512 1510 1507 1509 1508 1509 1509 1509 1508 1508 1510 1513 1514 1513 1514 1523 1521 1514 1513 1510 1507 1507 1510 1514 1516 1517 1518 1518 1521 1524
1510 1509 1508 1507 1507 1508 1509 1510 1511 1512 1512 1512 1513 1512 1512 1511 1508 1506 1505 1506 1507 1508 1508 1507 1509 1511 1513 1516 1515 1514 1519 1510 1510 1509 1507 1508 1508 1510 1512 1518 1514 1515 1518 1521 1525
1510 1509 1507 1506 1507 1508 1509 1510 1511 1511 1512 1512 1513 1512 1512 1510 1512 1505 1504 1505 1507 1509 1509 1508 1510 1512 1514 1515 1515 1517 1513 1514 1508 1505 1506 1507 1509 1510 1511 1512 1511 1515 1518 1522 1526
1510 1509 1507 1506 1506 1507 1508 1509 1510 1511 1511 1512 1513 1512 1511 1510 1507 1506 1505 1507 1508 1510 1511 1509 1510 1513 1513 1513 1514 1517 1513 1509 1506 1504 1505 1506 1508 1507 1510 1511 1510 1516 1520 1524 1527
1508 1508 1506 1505 1506 1507 1508 1509 1510 1510 1511 1512 1512 1512 1512 1511 1508 1507 1507 1507 1509 1511 1512 1510 1510 1511 1513 1513 1514 1514 1512 1508 1507 1506 1507 1508 1508 1508 1511 1512 1513 1517 1520 1523 1526
1507 1506 1506 1505 1505 1506 1507 1508 1509 1510 1511 1512 1512 1513 1511 1510 1508 1507 1507 1509 1511 1514 1513 1512 1513 1513 1514 1514 1514 1513 1512 1508 1509 1506 1505 1507 1509 1511 1511 1514 1515 1517 1520 1523 1525
1506 1505 1505 1504 1505 1506 1507 1508 1509 1510 1511 1511 1512 1512 1509 1508 1508 1508 1509 1511 1512 1514 1514 1512 1513 1514 1515 1516 1515 1516 1516 1524 1511 1509 1509 1510 1519 1510 1511 1513 1515 1518 1520 1521 1523
1505 1504 1504 1504 1505 1506 1506 1508 1509 1510 1511 1512 1512 1512 1508 1508 1507 1508 1510 1512 1513 1514 1514 1514 1514 1515 1516 1518 1525 1521 1530 1525 1517 1510 1510 1512 1515 1509 1509 1512 1515 1517 1518 1520 1522
1503 1503 1503 1503 1504 1505 1507 1508 1508 1510 1511 1511 1510 1513 1507 1507 1506 1507 1509 1512 1514 1514 1516 1516 1515 1518 1520 1524 1538 1526 1525 1522 1523 1512 1512 1513 1510 1508 1509 1510 1512 1514 1516 1517 1519
1501 1502 1502 1503 1504 1506 1507 1508 1512 1512 1509 1506 1506 1505 1505 1507 1507 1508 1509 1513 1514 1515 1516 1516 1521 1525 1518 1515 1514 1515 1518 1521 1514 1507 1512 1513 1512 1507 1507 1509 1512 1511 1510 1515 1516
1499 1500 1501 1501 1503 1505 1507 1508 1509 1511 1506 1501 1502 1503 1504 1505 1508 1508 1510 1515 1514 1517 1515 1519 1523 1505 1507 1510 1512 1515 1519 1521 1511 1506 1510 1511 1511 1505 1505 1505 1506 1506 1508 1512 1511
1497 1498 1499 1500 1502 1505 1506 1508 1507 1507 1507 1500 1499 1500 1501 1503 1503 1505 1507 1510 1511 1516 1517 1522 1510 1502 1505 1507 1512 1515 1518 1517 1515 1508 1508 1512 1516 1510 1504 1505 1503 1503 1505 1506 1505
1495 1497 1498 1499 1505 1503 1506 1507 1507 1508 1516 1503 1499 1497 1499 1500 1501 1501 1503 1508 1510 1513 1516 1517 1505 1503 1504 1507 1508 1521 1502 1505 1509 1519 1533 1515 1544 1513 1504 1501 1499 1498 1499 1501 1501
1493 1494 1496 1499 1500 1503 1507 1507 1507 1509 1540 1499 1496 1496 1496 1499 1499 1499 1502 1504 1508 1510 1514 1512 1506 1507 1509 1503 1500 1506 1497 1505 1509 1523 1524 1525 1538 1518 1507 1500 1495 1492 1493 1495 1496
1491 1493 1496 1499 1501 1504 1505 1506 1509 1523 1532 1499 1494 1495 1498 1497 1497 1499 1501 1504 1505 1506 1507 1506 1500 1501 1499 1493 1496 1498 1506 1514 1523 1532 1551 1531 1532 1522 1511 1497 1492 1488 1490 1491 1492
1490 1492 1495 1498 1501 1504 1505 1507 1524 1536 1501 1502 1498 1495 1499 1503 1500 1499 1501 1505 1513 1520 1522 1507 1501 1495 1494 1498 1497 1502 1520 1549 1548 1555 1552 1532 1534 1515 1494 1489 1487 1486 1487 1488 1490
1489 1491 1494 1498 1500 1502 1504 1509 1529 1510 1508 1494 1496 1498 1503 1503 1503 1501 1504 1510 1506 1511 1524 1529 1525 1496 1491 1494 1499 1502 1514 1543 1546 1558 1547 1527 1536 1507 1484 1481 1483 1485 1485 1486 1488
1488 1491 1494 1497 1500 1501 1504 1520 1515 1507 1498 1497 1498 1503 1506 1505 1505 1504 1506 1508 1502 1504 1520 1529 1519 1493 1491 1489 1492 1503 1515 1510 1542 1548 1548 1537 1517 1492 1481 1480 1482 1483 1483 1484 1486
1488 1492 1495 1498 1500 1501 1505 1517 1505 1497 1494 1494 1504 1499 1510 1508 1508 1507 1505 1496 1498 1497 1496 1511 1526 1500 1493 1490 1492 1494 1502 1522 1536 1542 1544 1545 1534 1521 1490 1484 1482 1481 1480 1481 1485
1490 1493 1496 1498 1500 1501 1514 1513 1501 1492 1494 1495 1496 1502 1503 1507 1508 1512 1506 1495 1492 1498 1498 1506 1518 1510 1498 1502 1506 1507 1511 1524 1529 1540 1552 1559 1536 1495 1489 1485 1482 1479 1478 1479 1482
1489 1492 1495 1498 1502 1506 1510 1504 1496 1492 1490 1491 1490 1491 1498 1502 1508 1510 1507 1497 1489 1491 1502 1502 1519 1526 1512 1500 1502 1502 1504 1517 1536 1535 1551 1552 1535 1487 1486 1481 1477 1474 1475 1476 1481
1489 1492 1495 1498 1508 1509 1502 1499 1495 1492 1489 1488 1488 1486 1490 1498 1504 1503 1499 1488 1487 1490 1496 1499 1521 1540 1528 1514 1503 1508 1505 1517 1525 1533 1539 1545 1528 1483 1480 1477 1473 1472 1472 1474 1478
1490 1495 1498 1499 1499 1501 1502 1501 1499 1492 1488 1486 1484 1483 1489 1493 1497 1497 1495 1489 1488 1489 1489 1491 1520 1522 1541 1522 1513 1512 1505 1506 1516 1534 1531 1530 1509 1491 1480 1476 1470 1469 1469 1472 1476
1489 1492 1493 1501 1500 1499 1500 1501 1502 1498 1488 1484 1483 1482 1486 1497 1498 1497 1492 1490 1490 1491 1492 1496 1512 1515 1510 1509 1508 1507 1505 1504 1512 1509 1516 1505 1511 1489 1476 1470 1465 1468 1471 1473 1476
1488 1490 1492 1495 1497 1498 1501 1499 1497 1495 1493 1488 1487 1484 1483 1491 1491 1497 1490 1491 1492 1490 1493 1498 1511 1513 1508 1500 1508 1508 1501 1501 1503 1499 1504 1500 1500 1472 1467 1466 1464 1467 1470 1472 1472
1490 1490 1491 1496 1497 1499 1501 1497 1495 1495 1489 1486 1484 1485 1485 1487 1484 1484 1486 1485 1486 1489 1495 1498 1511 1521 1525 1508 1508 1516 1499 1492 1486 1483 1484 1495 1477 1468 1466 1464 1463 1463 1464 1466 1469